THORAD DELTA 1 DEB, 8398

Orbit data source: Space-Track

THORAD DELTA 1 DEB, 8398 is space debris in SSO originally from a launch on Fri, 15 Nov 1974 UTC launched from the Air Force Western Test Range (AFWTR). Debris objects in space refer to the collection of defunct objects orbiting the Earth. Examples of debris include non-operational satellites, rocket bodies, and fragments generated from explosions, collisions, or faulty payload assembly.

Loading next visibility...
Identifier
8398, 1974-089CA
Orbit
SSO
Country
Flag of USUS
Related business
Manufacturer
Unknown
Mission
Spacecraft
Bus & Motor
Unknown
Mass
Unknown
Launch date (UTC)
1974-11-15 (52 years ago)
Launch vehicle
Unknown
Launch site
Air Force Western Test Range (AFWTR)
Object type
Payload
Rocket body
Debris
Shape & HBR
Unknown shape, 1.2 m
Radar Cross Section
Large (>1 m²)

Expand to show TLE details & history
Last TLE update: 6 hours ago

TLE from 6 hours ago
0 THORAD DELTA 1 DEB
1 08398U 74089CA  26144.96716132 -.00000027  00000-0  16710-3 0  9996
2 08398 102.5965 135.7506 0077310  16.5546  47.1720 12.26595398 62391
Epoch: 2026-05-24T23:12Z
TLE epoch observation values (Epoch: 2026-05-24T23:12:42.738Z)
Latitude
61.72983°
Longitude
-119.41441°
Altitude
1,532.8 km
Speed
7.124 km/s
True Right ascension
07h 25m 18s
True Declination
61° 36' 01"
Sunlit
Object was in daylight at epoch
Visualization orbit readout
Latitude
Unknown
Longitude
Unknown
Altitude
Unknown
Speed
Unknown
Apparent Right ascension
Unknown
Apparent Declination
Unknown
Sunlit
N/A
Visualization observer readout
Local Sidereal Time
13:55:00
Azimuth
Unknown
Elevation
Unknown
Doppler factor
Unknown
Orbital elements
Apogee altitude
1,622.954 km
Perigee altitude
1,500.19 km
Semi-major axis
7,939.709 km
Eccentricity
0.00773
Inclination
102.5965°
RAAN
135.7506°
Arg. of periapsis
16.5546°
True anomaly
47.826°
Mean anomaly
47.172°
Eccentric anomaly
47.49857°
Mean motion
3.06787 °/min
Orbital period
117.35 mins
BSTAR
0.0001671
Loading maneuver chart data...
Computing Atmospheric mass density...

Documentation

Showing up to 5 results
|